Regional Weather Roundup
Issued by NWS

Home | Current Version | Previous Version | Text Only | Print | Product List | Glossary Off
Versions: 1 2 3 4 5 6 7 8 9 10 11 12 13 14 15 16 17 18 19 20 21 22 23 24 25 26 27 28 29 30 31 32 33 34 35 36 37 38 39 40 41 42 43 44 45 46 47 48 49 50

190
ASUS43 KBIS 220602
RWRND

NORTH DAKOTA REGIONAL WEATHER ROUNDUP
NATIONAL WEATHER SERVICE BISMARCK ND
1200 AM CST MON JAN 22 2018

NOTE: "FAIR" INDICATES FEW OR NO CLOUDS BELOW 12,000 FEET WITH NO
SIGNIFICANT WEATHER AND/OR OBSTRUCTIONS TO VISIBILITY.


NDZ001>003-009>011-017-220700-
NORTHWEST NORTH DAKOTA

CITY           SKY/WX    TMP DP  RH WIND       PRES   REMARKS
WILLISTON      CLEAR     15  11  83 SW7       30.02S WCI   5
6HR MIN TEMP:  10; 6HR MAX TEMP:  27;

MINOT          CLEAR     16  12  84 S3        30.01S
MINOT AFB      CLEAR      9   6  87 CALM      30.00S
$$

NDZ018>021-031>035-040>046-220700-
SOUTHWEST NORTH DAKOTA

CITY           SKY/WX    TMP DP  RH WIND       PRES   REMARKS
BISMARCK       FOG       15  15 100 E5        30.05F VSB 1/4 WCI   8
6HR MIN TEMP:  13; 6HR MAX TEMP:  23;

DICKINSON      CLEAR     17  14  88 W6        29.98S WCI   9
GARRISON         N/A      6   3  87 CALM      30.01F
6HR MIN TEMP:   6; 6HR MAX TEMP:  25;

HETTINGER ARPT CLEAR     16  13  88 W5        30.01F WCI   9
$$

NDZ004>008-012>016-024-026-027-054-220700-
NORTHEAST NORTH DAKOTA

CITY           SKY/WX    TMP DP  RH WIND       PRES   REMARKS
GRAND FORKS    CLOUDY    24  21  88 N3        30.12R
GRND FRKS AFB  CLOUDY    23  20  90 CALM      30.11S
DEVILS LAKE    CLOUDY    21  20  96 CALM      30.08S
$$

NDZ022-023-025-028>030-036>039-047>053-220700-
SOUTHEAST NORTH DAKOTA

CITY           SKY/WX    TMP DP  RH WIND       PRES   REMARKS
FARGO          CLOUDY    26  23  88 NE10      30.08F WCI  16
6HR MIN TEMP:  26; 6HR MAX TEMP:  26;

JAMESTOWN      CLOUDY    25  22  88 E6        30.06S WCI  18
$$





USA.gov is the U.S. government's official web portal to all federal, state and local government web resources and services.